Cloud_Cover
95 99 84 56 89 77 33 8 5 6 23 79 100 100 100 100 100 94 39 73 100 99 14 5 4 0 0 0 0 0 0 0 0 0 0 0 0 0 0 0 0 2 0
99 61 43 56 78 68 14 5 14 44 39 6 17 88 100 100 99 72 15 33 13 10 5 5 1 0 0 0 0 0 0 0 0 0 0 0 1 0 0 0 0 0 0
100 100 84 99 100 79 74 29 80 17 6 5 5 93 100 80 84 24 84 52 13 14 99 6 1 0 1 3 0 0 0 0 0 0 0 52 14 0 0 0 0 0 0
100 100 100 100 100 89 54 12 47 98 56 10 5 36 100 62 100 100 58 100 100 85 62 5 5 6 17 0 0 2 7 0 0 0 4 2 16 0 0 0 0 0 0
90 71 100 100 100 100 78 53 26 77 5 16 33 85 32 26 37 46 62 14 8 5 5 5 5 5 3 0 2 76 0 0 0 4 5 0 0 3 0 0 0 0 0
99 100 100 100 100 100 100 100 80 66 40 16 57 24 72 12 4 23 66 7 32 52 100 5 4 1 64 5 2 5 2 0 5 5 3 0 0 0 0 0 0 0 0
100 100 100 100 100 100 100 100 100 61 35 91 67 88 100 100 50 100 100 100 100 17 60 74 6 46 100 55 5 12 5 4 4 0 0 0 0 0 0 0 0 0 0
100 100 100 100 100 100 100 100 100 100 100 100 100 100 98 100 100 100 94 84 100 100 30 6 100 69 11 13 27 10 55 14 5 0 0 0 0 0 0 0 0 0 0
100 100 100 100 100 100 100 100 100 100 100 100 100 100 100 100 100 76 100 99 100 95 95 100 67 65 5 5 4 6 3 2 0 0 2 0 0 0 0 0 0 0 0
100 100 100 100 100 100 100 100 100 100 100 100 100 100 100 100 100 100 100 100 100 100 100 90 59 23 5 4 4 2 4 3 4 2 0 0 0 0 0 0 0 0 0
100 100 100 100 100 100 100 100 100 100 100 100 100 100 100 100 100 100 100 100 100 100 76 44 30 5 3 4 0 1 5 5 0 2 2 0 4 0 0 0 0 0 0
100 100 100 100 100 100 100 100 100 100 100 100 100 100 100 100 100 100 100 86 86 75 68 5 5 0 0 0 5 0 0 0 1 3 13 0 0 0 0 0 0 0 0
100 100 100 100 100 100 100 100 100 100 100 100 100 100 100 100 98 100 99 66 58 14 41 5 10 5 1 3 0 0 1 87 100 20 3 0 0 0 0 0 0 0 0
100 96 100 100 100 100 100 100 100 100 100 100 100 100 100 91 100 78 40 51 79 99 8 17 27 30 52 8 66 100 100 100 11 0 0 0 0 0 0 0 0 0 0
92 19 46 54 90 100 100 100 100 100 100 100 100 100 100 100 96 92 100 100 78 100 51 73 47 49 28 97 100 87 63 3 0 0 0 0 0 0 0 0 0 0 0
34 100 100 100 100 100 100 100 100 100 100 100 100 100 100 81 95 100 100 100 100 99 100 100 100 100 100 100 55 83 43 5 4 1 2 0 0 0 0 0 0 0 0
97 99 78 98 77 100 100 100 100 100 100 100 100 100 100 100 100 100 100 100 100 100 100 100 100 62 27 98 8 5 4 3 5 5 5 5 5 5 5 0 0 0 0
100 99 100 80 73 91 81 99 94 64 92 98 100 100 100 100 100 100 100 100 100 100 100 93 38 84 36 2 0 3 0 0 2 5 5 12 67 8 10 53 7 0 0
99 100 89 55 93 56 49 98 85 50 29 66 100 100 100 100 100 100 100 92 74 100 93 30 2 1 2 4 0 4 2 0 5 5 5 5 99 100 96 5 39 1 0
94 97 100 100 100 72 95 48 94 100 73 59 88 100 97 78 73 34 6 7 1 0 0 0 0 0 0 0 0 5 0 0 0 0 5 61 52 96 85 76 23 75 16
5 30 17 100 100 89 93 55 64 98 89 21 7 0 0 0 0 0 0 0 0 0 0 0 0 1 0 0 0 5 5 2 0 4 5 85 99 94 100 100 94 61 19
73 85 85 96 99 91 73 12 7 5 2 0 0 0 0 1 3 5 3 5 5 5 4 1 2 4 1 1 2 5 1 2 5 5 4 66 40 36 70 99 66 71 94
100 96 76 63 52 20 52 5 0 0 0 0 0 0 1 5 5 5 4 1 4 0 0 0 3 4 5 5 5 4 5 5 1 3 5 5 5 59 100 91 35 71 90
7 5 6 5 5 5 3 0 0 69 99 6 5 5 5 5 5 5 5 5 1 3 0 3 5 4 5 5 5 5 34 29 58 32 33 5 4 14 44 6 89 32 5
5 5 5 5 2 0 0 0 0 2 5 5 5 5 5 6 89 12 5 2 0 0 4 5 5 5 5 11 6 5 63 74 51 5 7 43 52 84 83 100 100 16 5
5 5 5 0 0 0 0 0 0 5 5 22 85 73 70 17 5 41 5 0 0 0 5 5 5 10 7 42 98 15 53 90 72 100 91 15 60 43 100 86 25 74 46